• în România
  • Lista ţărilor
  • Pe 7 zile
  • Temperatura apei
  • Hartă satelitară
  • Meteo pe hartă
  • Widget-uri
  • user-avatar
    Intrare

    Meteo pe oră la Adelaide

    Astăzi, 26 Martie, Duminică

    Timp Temperatura Precipitaţii Vânt Presiune Umiditate
    00:00 +23°C° 0 mm 1 m/s 756 mmHg 78%
    01:00 +23°C° 0 mm 1 m/s 756 mmHg 78%
    02:00 +23°C° 0 mm 1 m/s 756 mmHg 78%
    03:00 +23°C° 0 mm 2 m/s 755 mmHg 78%
    04:00 +23°C° 0 mm 2 m/s 755 mmHg 77%
    05:00 +23°C° 0 mm 2 m/s 755 mmHg 76%
    06:00 +23°C° 0 mm 2 m/s 755 mmHg 76%
    07:00 +24°C° 0 mm 2 m/s 755 mmHg 72%
    08:00 +25°C° 0 mm 2 m/s 755 mmHg 68%
    09:00 +27°C° 0 mm 1 m/s 755 mmHg 60%
    10:00 +30°C° 0 mm 1 m/s 755 mmHg 52%
    11:00 +32°C° 0 mm 1 m/s 754 mmHg 44%
    12:00 +35°C° 0 mm 1 m/s 754 mmHg 36%
    13:00 +37°C° 0 mm 2 m/s 753 mmHg 33%
    14:00 +37°C° 0 mm 2 m/s 752 mmHg 30%
    15:00 +36°C° 0 mm 2 m/s 752 mmHg 33%
    16:00 +35°C° 0 mm 2 m/s 752 mmHg 35%
    17:00 +34°C° 0 mm 2 m/s 751 mmHg 37%
    18:00 +33°C° 0 mm 3 m/s 751 mmHg 39%
    19:00 +33°C° 0 mm 3 m/s 751 mmHg 38%
    20:00 +33°C° 0 mm 4 m/s 750 mmHg 37%
    21:00 +33°C° 0 mm 6 m/s 750 mmHg 36%
    22:00 +33°C° 0 mm 6 m/s 750 mmHg 34%
    23:00 +33°C° 0 mm 5 m/s 749 mmHg 32%

    Mâine, 27 Martie, Luni

    Timp Temperatura Precipitaţii Vânt Presiune Umiditate
    00:00 +33°C° 0 mm 5 m/s 749 mmHg 31%
    01:00 +32°C° 0 mm 5 m/s 749 mmHg 37%
    02:00 +29°C° 0 mm 6 m/s 750 mmHg 44%
    03:00 +28°C° 0 mm 6 m/s 750 mmHg 50%
    04:00 +26°C° 0 mm 6 m/s 751 mmHg 59%
    05:00 +24°C° 0 mm 6 m/s 752 mmHg 67%
    06:00 +22°C° 0 mm 6 m/s 754 mmHg 76%
    07:00 +22°C° 0 mm 6 m/s 755 mmHg 70%
    08:00 +23°C° 0 mm 6 m/s 756 mmHg 63%
    09:00 +23°C° 0 mm 6 m/s 756 mmHg 57%
    10:00 +23°C° 0 mm 6 m/s 757 mmHg 54%
    11:00 +23°C° 0 mm 6 m/s 757 mmHg 51%
    12:00 +25°C° 0 mm 5 m/s 757 mmHg 47%
    13:00 +25°C° 0 mm 5 m/s 757 mmHg 46%
    14:00 +23°C° 0 mm 5 m/s 757 mmHg 45%
    15:00 +23°C° 0 mm 5 m/s 756 mmHg 43%
    16:00 +22°C° 0 mm 4 m/s 757 mmHg 48%
    17:00 +21°C° 0 mm 3 m/s 757 mmHg 52%
    18:00 +20°C° 0 mm 3 m/s 757 mmHg 57%
    19:00 +19°C° 0 mm 3 m/s 757 mmHg 60%
    20:00 +19°C° 0 mm 3 m/s 758 mmHg 63%
    21:00 +18°C° 0 mm 3 m/s 758 mmHg 66%
    22:00 +18°C° 0 mm 3 m/s 758 mmHg 68%
    23:00 +18°C° 0 mm 3 m/s 758 mmHg 71%

    Poimâine, 28 Martie, Marţi

    Timp Temperatura Precipitaţii Vânt Presiune Umiditate
    00:00 +17°C° 0 mm 3 m/s 758 mmHg 73%
    01:00 +17°C° 0 mm 2 m/s 758 mmHg 74%
    02:00 +17°C° 0 mm 2 m/s 758 mmHg 76%
    03:00 +16°C° 0 mm 2 m/s 758 mmHg 78%
    04:00 +16°C° 0 mm 2 m/s 758 mmHg 78%
    05:00 +16°C° 0 mm 2 m/s 758 mmHg 79%
    06:00 +16°C° 0 mm 2 m/s 758 mmHg 79%
    07:00 +17°C° 0 mm 2 m/s 758 mmHg 72%
    08:00 +19°C° 0 mm 2 m/s 759 mmHg 64%
    09:00 +21°C° 0 mm 2 m/s 759 mmHg 57%
    10:00 +21°C° 0 mm 2 m/s 759 mmHg 53%
    11:00 +23°C° 0 mm 2 m/s 758 mmHg 50%
    12:00 +24°C° 0 mm 2 m/s 758 mmHg 47%
    13:00 +24°C° 0 mm 2 m/s 757 mmHg 46%
    14:00 +25°C° 0 mm 2 m/s 756 mmHg 45%
    15:00 +25°C° 0 mm 2 m/s 755 mmHg 44%
    16:00 +23°C° 0 mm 2 m/s 756 mmHg 51%
    17:00 +21°C° 0 mm 1 m/s 756 mmHg 57%
    18:00 +20°C° 0 mm 1 m/s 756 mmHg 63%
    19:00 +19°C° 0 mm 1 m/s 756 mmHg 66%
    20:00 +18°C° 0 mm 1 m/s 756 mmHg 70%
    21:00 +18°C° 0 mm 1 m/s 756 mmHg 73%
    22:00 +17°C° 0 mm 2 m/s 756 mmHg 74%
    23:00 +17°C° 0 mm 2 m/s 756 mmHg 75%

    29 Martie, Miercuri

    Timp Temperatura Precipitaţii Vânt Presiune Umiditate
    00:00 +17°C° 0 mm 2 m/s 756 mmHg 77%
    01:00 +17°C° 0 mm 2 m/s 755 mmHg 79%
    02:00 +17°C° 0 mm 3 m/s 755 mmHg 80%
    03:00 +17°C° 0 mm 3 m/s 755 mmHg 82%
    04:00 +17°C° 0 mm 3 m/s 755 mmHg 82%
    05:00 +17°C° 0 mm 3 m/s 755 mmHg 82%
    06:00 +18°C° 0 mm 4 m/s 755 mmHg 82%
    07:00 +19°C° 0 mm 4 m/s 755 mmHg 76%
    08:00 +20°C° 0 mm 4 m/s 755 mmHg 71%
    09:00 +21°C° 0 mm 5 m/s 756 mmHg 66%
    10:00 +21°C° 0,1 mm 5 m/s 755 mmHg 66%
    11:00 +21°C° 0,1 mm 5 m/s 755 mmHg 66%
    12:00 +21°C° 0,1 mm 5 m/s 755 mmHg 66%
    13:00 +21°C° 0,4 mm 6 m/s 755 mmHg 69%
    14:00 +20°C° 0,4 mm 6 m/s 755 mmHg 73%
    15:00 +19°C° 0,4 mm 6 m/s 755 mmHg 77%
    16:00 +17°C° 0,3 mm 6 m/s 756 mmHg 75%
    17:00 +16°C° 0,3 mm 6 m/s 757 mmHg 74%
    18:00 +15°C° 0,3 mm 6 m/s 758 mmHg 73%
    19:00 +15°C° 0 mm 5 m/s 758 mmHg 71%
    20:00 +15°C° 0 mm 5 m/s 759 mmHg 68%
    21:00 +14°C° 0 mm 5 m/s 760 mmHg 66%
    22:00 +14°C° 0 mm 5 m/s 760 mmHg 66%
    23:00 +13°C° 0 mm 5 m/s 760 mmHg 66%

    30 Martie, Joi

    Timp Temperatura Precipitaţii Vânt Presiune Umiditate
    00:00 +13°C° 0 mm 5 m/s 761 mmHg 65%
    01:00 +13°C° 0 mm 4 m/s 761 mmHg 65%
    02:00 +13°C° 0 mm 4 m/s 761 mmHg 65%
    03:00 +12°C° 0 mm 4 m/s 761 mmHg 65%
    04:00 +12°C° 0 mm 4 m/s 762 mmHg 65%
    05:00 +12°C° 0 mm 4 m/s 762 mmHg 65%
    06:00 +12°C° 0 mm 4 m/s 762 mmHg 65%
    07:00 +13°C° 0 mm 4 m/s 763 mmHg 60%
    08:00 +15°C° 0 mm 4 m/s 763 mmHg 55%
    09:00 +16°C° 0 mm 5 m/s 764 mmHg 50%
    10:00 +17°C° 0 mm 5 m/s 764 mmHg 48%
    11:00 +17°C° 0 mm 5 m/s 764 mmHg 46%
    12:00 +17°C° 0 mm 5 m/s 763 mmHg 45%
    13:00 +17°C° 0 mm 5 m/s 763 mmHg 45%
    14:00 +19°C° 0 mm 5 m/s 763 mmHg 44%
    15:00 +19°C° 0 mm 5 m/s 763 mmHg 44%
    16:00 +17°C° 0 mm 5 m/s 763 mmHg 49%
    17:00 +17°C° 0 mm 4 m/s 763 mmHg 53%
    18:00 +14°C° 0 mm 4 m/s 764 mmHg 58%
    19:00 +14°C° 0 mm 4 m/s 764 mmHg 61%
    20:00 +13°C° 0 mm 3 m/s 764 mmHg 65%
    21:00 +13°C° 0 mm 3 m/s 765 mmHg 68%
    22:00 +13°C° 0 mm 3 m/s 764 mmHg 70%
    23:00 +12°C° 0 mm 3 m/s 764 mmHg 72%

    31 Martie, Vineri

    Timp Temperatura Precipitaţii Vânt Presiune Umiditate
    00:00 +12°C° 0 mm 3 m/s 764 mmHg 74%
    01:00 +13°C° 0 mm 2 m/s 764 mmHg 75%
    02:00 +12°C° 0 mm 2 m/s 764 mmHg 77%
    03:00 +12°C° 0 mm 2 m/s 763 mmHg 79%
    04:00 +12°C° 0 mm 2 m/s 764 mmHg 79%
    05:00 +10°C° 0 mm 2 m/s 764 mmHg 79%
    06:00 +10°C° 0 mm 2 m/s 764 mmHg 80%
    07:00 +13°C° 0 mm 1 m/s 764 mmHg 70%
    08:00 +15°C° 0 mm 1 m/s 764 mmHg 61%
    09:00 +18°C° 0 mm 1 m/s 764 mmHg 51%
    10:00 +19°C° 0 mm 1 m/s 764 mmHg 51%
    11:00 +18°C° 0 mm 2 m/s 764 mmHg 51%
    12:00 +18°C° 0 mm 2 m/s 763 mmHg 51%
    13:00 +18°C° 0 mm 3 m/s 763 mmHg 51%
    14:00 +18°C° 0 mm 3 m/s 762 mmHg 52%
    15:00 +18°C° 0 mm 4 m/s 762 mmHg 52%
    16:00 +17°C° 0 mm 3 m/s 762 mmHg 56%
    17:00 +16°C° 0 mm 3 m/s 763 mmHg 61%
    18:00 +14°C° 0 mm 3 m/s 763 mmHg 65%
    19:00 +14°C° 0 mm 3 m/s 763 mmHg 68%
    20:00 +13°C° 0 mm 3 m/s 764 mmHg 70%
    21:00 +13°C° 0 mm 3 m/s 764 mmHg 73%
    22:00 +13°C° 0 mm 3 m/s 764 mmHg 74%
    23:00 +13°C° 0 mm 3 m/s 764 mmHg 75%
    Arată mai mult